Flag for Germany Weather past 2 weeks in Norderstedt, Schleswig-Holstein, Germany

Now
45 °F

Passing clouds.


Feels Like: 36 °F
Forecast: 38 / 46 °F
Wind: 23 mph from West

Location: Hamburg-Fuhlsbuettel

Current Time: Dec 20, 2014 at 8:30:47 AM

Latest Report: Dec 20, 2014 at 7:50 AM


Visibility: N/A

Pressure: 29.74 "Hg

Humidity: 76%

Dew point: 37 °F

Location of NorderstedtLocation

Historic Weather in Norderstedt — Graph

°F

Norderstedt temperature yesterday

Maximum temperature yesterday: 54 °F (at 12:20 AM)
Minimum temperature yesterday: 39 °F (at 10:50 PM)
Average temperature yesterday: 48 °F

Past Weeks' High & Low Weather Summary

 TemperatureHumidityPressure
High54 °F (Dec 18, 7:20 PM)100% (Dec 5, 8:50 AM)30.30 "Hg (Dec 5, 8:50 AM)
Low34 °F (Dec 5, 8:50 AM)70% (Dec 10, 4:20 AM)29.18 "Hg (Dec 12, 12:50 PM)
Average40 °F90%29.81 "Hg
* Reported Dec 5 7:20 AM — Dec 20 7:20 AM, Norderstedt, Weather by CustomWeather, © 2014

Note: Actual official high and low records may vary slightly from our data, if they occured in-between our weather recording intervals... More about our weather records

Advertising

Norderstedt weather history for previous 24 hours

 ConditionsComfort  
Time TempWeatherWind HumidityBarometerVisibility
7:20 AM
Dec 20
45 °FPassing clouds.20 mph76%29.77 "HgN/A
6:50 AM45 °FPassing clouds.22 mph76%29.77 "HgN/A
6:20 AM45 °FSprinkles. Partly cloudy.23 mph76%29.80 "HgN/A
5:50 AM43 °FSprinkles. Passing clouds.20 mph87%29.80 "HgN/A
5:20 AM43 °FPassing clouds.20 mph87%29.80 "HgN/A
4:50 AM43 °FSprinkles. Passing clouds.21 mph81%29.80 "HgN/A
4:20 AM43 °FSprinkles. Passing clouds.18 mph81%29.80 "HgN/A
3:50 AM43 °FPassing clouds.18 mph81%29.80 "HgN/A
3:20 AM43 °FSprinkles. Passing clouds.22 mph81%29.80 "HgN/A
2:50 AM43 °FSprinkles. Passing clouds.18 mph81%29.80 "HgN/A
2:20 AM43 °FPassing clouds.21 mph81%29.80 "HgN/A
1:50 AM43 °FPassing clouds.18 mph81%29.80 "HgN/A
1:20 AM43 °FPassing clouds.18 mph81%29.80 "HgN/A
12:50 AM43 °FSprinkles. Passing clouds.16 mph81%29.80 "HgN/A
12:20 AM41 °FSprinkles. Passing clouds.15 mph87%29.80 "HgN/A
11:50 PM
Dec 19
41 °FSprinkles. Passing clouds.12 mph87%29.80 "HgN/A
11:20 PM41 °FScattered showers. Passing clouds.12 mph87%29.80 "HgN/A
10:50 PM39 °FRain showers. Partly cloudy.20 mph93%29.80 "HgN/A
10:20 PM43 °FSprinkles. Passing clouds.16 mph81%29.77 "HgN/A
9:50 PM43 °FSprinkles. Clear.15 mph81%29.77 "HgN/A
9:20 PM43 °FSprinkles. Passing clouds.20 mph81%29.77 "HgN/A
8:50 PM43 °FPassing clouds.14 mph81%29.77 "HgN/A
8:20 PM43 °FPassing clouds.17 mph81%29.77 "HgN/A
7:50 PM43 °FSprinkles. Passing clouds.15 mph81%29.74 "HgN/A
7:20 PM45 °FPassing clouds.17 mph76%29.74 "HgN/A
6:50 PM45 °FPassing clouds.16 mph81%29.74 "HgN/A
6:20 PM45 °FPassing clouds.15 mph81%29.71 "HgN/A
5:50 PM45 °FPassing clouds.14 mph81%29.71 "HgN/A
5:20 PM45 °FPassing clouds.15 mph81%29.71 "HgN/A
4:50 PM45 °FPassing clouds.14 mph81%29.71 "HgN/A
4:20 PM45 °FPassing clouds.13 mph81%29.68 "HgN/A
3:50 PM46 °FScattered clouds.13 mph76%29.68 "HgN/A
3:20 PM46 °FScattered clouds.14 mph82%29.68 "HgN/A
2:50 PM46 °FScattered clouds.17 mph76%29.65 "HgN/A
2:20 PM48 °FScattered clouds.15 mph82%29.65 "HgN/A
1:50 PM48 °FBroken clouds.14 mph87%29.65 "HgN/A
1:20 PM48 °FLight rain. Broken clouds.15 mph87%29.65 "HgN/A
12:50 PM48 °FBroken clouds.12 mph94%29.62 "HgN/A
12:20 PM48 °FLight rain. Partly sunny.13 mph94%29.62 "Hg5 mi
11:50 AM48 °FLight rain. Broken clouds.14 mph94%29.62 "HgN/A
11:20 AM48 °FLight rain. Broken clouds.9 mph100%29.59 "HgN/A
10:50 AM50 °FLight rain. Partly sunny.12 mph94%29.59 "Hg6 mi
10:20 AM50 °FLight rain. Broken clouds.13 mph94%29.59 "HgN/A
9:50 AM50 °FRain. Partly sunny.18 mph100%29.59 "Hg4 mi
9:20 AM52 °FLight rain. Partly sunny.16 mph100%29.56 "Hg4 mi
8:50 AM52 °FLight rain. Partly sunny.17 mph100%29.56 "Hg4 mi
8:20 AM52 °FRain. Passing clouds.17 mph94%29.56 "Hg3 mi
Weather by CustomWeather, © 2014

See weather overviewHow to use our weather pages